CW9792 Weather Reports


time (UTC)temp
F
wind
direction
speed
knots
gust
knots
rain 1hr
in
rain 24hr
in
rain mn
in
humidity
%
barometer
mb
20260904135546 85 168 0.0 0.0 0.00 0.00 0.00 57 1015.2
20260904135042 84 168 0.0 0.0 0.00 0.00 0.00 57 1015.2
20260904134600 84 159 0.0 0.0 0.00 0.00 0.00 58 1015.2
20260904134039 83 158 0.0 0.0 0.00 0.00 0.00 58 1015.3
20260904133538 82 178 0.0 0.0 0.00 0.00 0.00 58 1015.3
20260904133039 82 178 0.0 0.0 0.00 0.00 0.00 58 1015.3
20260904132537 81 161 0.0 0.0 0.00 0.00 0.00 58 1015.3
20260904132033 80 180 0.0 0.0 0.00 0.00 0.00 58 1015.2
20260904131533 80 181 0.0 0.0 0.00 0.00 0.00 58 1015.2
20260904131032 79 181 0.0 0.0 0.00 0.00 0.00 59 1015.2
20260904130532 79 90 0.0 0.0 0.00 0.00 0.00 60 1015.2
20260904130035 78 82 0.0 0.0 0.00 0.00 0.00 61 1015.1
20260904125534 77 221 0.0 0.0 0.00 0.00 0.00 63 1015.2
20260904125031 76 221 0.0 0.0 0.00 0.00 0.00 64 1015.1
20260904124530 76 221 0.0 0.0 0.00 0.00 0.00 66 1015.0
20260904124029 75 221 0.0 0.0 0.00 0.00 0.00 67 1014.9
20260904123529 75 223 0.0 0.0 0.00 0.00 0.00 67 1014.9
20260904123029 74 223 0.0 0.0 0.00 0.00 0.00 67 1014.9
20260904122528 74 223 0.0 0.0 0.00 0.00 0.00 67 1014.9
20260904122030 73 225 0.0 0.0 0.00 0.00 0.00 67 1014.8
20260904121527 72 227 0.0 0.0 0.00 0.00 0.00 66 1014.8
20260904121026 72 227 0.0 0.0 0.00 0.00 0.00 66 1014.8
20260904120528 72 227 0.0 0.0 0.00 0.00 0.00 66 1014.9
20260904120027 72 227 0.0 0.0 0.00 0.00 0.00 66 1014.8
20260904115528 72 227 0.0 0.0 0.00 0.00 0.00 66 1014.8
20260904115026 72 227 0.0 0.0 0.00 0.00 0.00 66 1014.8
20260904114526 72 227 0.0 0.0 0.00 0.00 0.00 66 1014.7
20260904114031 72 227 0.0 0.0 0.00 0.00 0.00 65 1014.8
20260904113525 72 227 0.0 0.0 0.00 0.00 0.00 65 1014.7
20260904113023 72 227 0.0 0.0 0.00 0.00 0.00 65 1014.5
20260904112522 72 227 0.0 0.0 0.00 0.00 0.00 65 1014.5
20260904112022 72 227 0.0 0.0 0.00 0.00 0.00 65 1014.5
20260904111522 72 227 0.0 0.0 0.00 0.00 0.00 65 1014.5
20260904111022 72 227 0.0 0.0 0.00 0.00 0.00 65 1014.4
20260904110521 72 227 0.0 0.0 0.00 0.00 0.00 65 1014.4
20260904110020 72 227 0.0 0.0 0.00 0.00 0.00 65 1014.2
20260904105522 72 227 0.0 0.0 0.00 0.00 0.00 65 1014.2
20260904105021 72 227 0.0 0.0 0.00 0.00 0.00 65 1014.3
20260904104520 73 227 0.0 0.0 0.00 0.00 0.00 65 1014.3
20260904104019 73 227 0.0 0.0 0.00 0.00 0.00 65 1014.3
20260904103522 73 227 0.0 0.0 0.00 0.00 0.00 65 1014.3
20260904103022 73 227 0.0 0.0 0.00 0.00 0.00 65 1014.2
20260904102518 73 227 0.0 0.0 0.00 0.00 0.00 65 1014.1
20260904102018 73 227 0.0 0.0 0.00 0.00 0.00 65 1014.1
20260904101517 73 227 0.0 0.0 0.00 0.00 0.00 65 1014.0
20260904101018 73 227 0.0 0.0 0.00 0.00 0.00 65 1014.1
20260904100517 73 227 0.0 0.0 0.00 0.00 0.00 64 1014.1
20260904100017 73 227 0.0 0.0 0.00 0.00 0.00 64 1014.1
20260904095521 73 227 0.0 0.0 0.00 0.00 0.00 64 1014.0
20260904095017 73 227 0.0 0.0 0.00 0.00 0.00 64 1013.9
20260904094533 73 227 0.0 0.0 0.00 0.00 0.00 64 1013.8
20260904094015 73 227 0.0 0.0 0.00 0.00 0.00 64 1014.0
20260904093515 74 227 0.0 0.0 0.00 0.00 0.00 64 1014.0
20260904093017 74 227 0.0 0.0 0.00 0.00 0.00 63 1014.0
20260904092516 74 227 0.0 0.0 0.00 0.00 0.00 63 1013.8
20260904092013 74 227 0.0 0.0 0.00 0.00 0.00 63 1013.8
20260904091513 74 227 0.0 0.0 0.00 0.00 0.00 63 1013.8
20260904091011 74 227 0.0 0.0 0.00 0.00 0.00 63 1013.9
20260904090511 74 227 0.0 0.0 0.00 0.00 0.00 63 1013.9
20260904090028 74 227 0.0 0.0 0.00 0.00 0.00 63 1013.8
20260904085511 74 227 0.0 0.0 0.00 0.00 0.00 63 1013.8
20260904085011 74 227 0.0 0.0 0.00 0.00 0.00 63 1013.8
20260904084512 74 227 0.0 0.0 0.00 0.00 0.00 63 1013.8
20260904084013 74 227 0.0 0.0 0.00 0.00 0.00 63 1013.8
20260904083510 75 227 0.0 0.0 0.00 0.00 0.00 63 1013.7
20260904083009 75 227 0.0 0.0 0.00 0.00 0.00 63 1013.8
20260904082508 75 227 0.0 0.0 0.00 0.00 0.00 63 1013.7
20260904082008 75 227 0.0 0.0 0.00 0.00 0.00 63 1013.8
20260904081509 75 227 0.0 0.0 0.00 0.00 0.00 63 1013.8
20260904081006 76 227 0.0 0.0 0.00 0.00 0.00 63 1013.7
20260904080507 76 227 0.0 0.0 0.00 0.00 0.00 63 1013.7
20260904080008 76 227 0.0 0.0 0.00 0.00 0.00 63 1013.7
20260904075506 76 227 0.0 0.0 0.00 0.00 0.00 63 1013.7
20260904075005 76 227 0.0 0.0 0.00 0.00 0.00 62 1013.6
20260904074503 76 227 0.0 0.0 0.00 0.00 0.00 62 1013.7
20260904074003 77 227 0.0 0.0 0.00 0.00 0.00 61 1013.8
20260904073503 77 227 0.0 0.0 0.00 0.00 0.00 61 1013.7
20260904073002 77 227 0.0 0.0 0.00 0.00 0.00 61 1013.7
20260904072059 78 227 0.0 0.0 0.00 0.00 0.00 60 1013.8
20260904071620 79 227 0.0 0.0 0.00 0.00 0.00 59 1013.8
20260904071100 80 227 0.0 0.0 0.00 0.00 0.00 57 1013.8
20260904070559 80 227 0.0 0.0 0.00 0.00 0.00 57 1013.7
20260904070116 80 227 0.0 0.0 0.00 0.00 0.00 57 1013.7
20260904065600 80 227 0.0 0.0 0.00 0.00 0.00 56 1013.8
20260904065058 80 227 0.0 0.0 0.00 0.00 0.00 57 1013.7
20260904064557 80 227 0.0 0.0 0.00 0.00 0.00 57 1013.6
20260904064057 80 227 0.0 0.0 0.00 0.00 0.00 57 1013.6
20260904063557 80 227 0.0 0.0 0.00 0.00 0.00 57 1013.7
20260904063105 80 227 0.0 0.0 0.00 0.00 0.00 57 1013.7
20260904062559 80 227 0.0 0.0 0.00 0.00 0.00 57 1013.8
20260904062055 80 227 0.0 0.0 0.00 0.00 0.00 57 1013.7
20260904061555 80 227 0.0 0.0 0.00 0.00 0.00 57 1013.9
20260904061054 80 227 0.0 0.0 0.00 0.00 0.00 57 1013.9
20260904060556 80 227 0.0 0.0 0.00 0.00 0.00 57 1013.9
20260904060054 80 227 0.0 0.0 0.00 0.00 0.00 57 1013.9
20260904055553 79 227 0.0 0.0 0.00 0.00 0.00 57 1013.9
20260904055052 79 227 0.0 0.0 0.00 0.00 0.00 57 1013.9
20260904054553 79 227 0.0 0.0 0.00 0.00 0.00 57 1014.0
20260904054051 79 227 0.0 0.0 0.00 0.00 0.00 57 1014.1
20260904053552 79 227 0.0 0.0 0.00 0.00 0.00 57 1014.1
20260904053101 79 227 0.0 0.0 0.00 0.00 0.00 57 1014.1
20260904052550 79 227 0.0 0.0 0.00 0.00 0.00 57 1014.1
20260904052049 79 227 0.0 0.0 0.00 0.00 0.00 57 1014.1
20260904051549 79 227 0.0 0.0 0.00 0.00 0.00 58 1014.1
20260904051047 79 227 0.0 0.0 0.00 0.00 0.00 58 1014.1
20260904050546 79 227 0.0 0.0 0.00 0.00 0.00 58 1014.2
20260904050047 79 227 0.0 0.0 0.00 0.00 0.00 58 1014.2
20260904045546 79 227 0.0 0.0 0.00 0.00 0.00 58 1014.3
20260904045046 79 227 0.0 0.0 0.00 0.00 0.00 59 1014.3
20260904044546 78 227 0.0 0.0 0.00 0.00 0.00 59 1014.3
20260904044046 79 227 0.0 0.0 0.00 0.00 0.00 59 1014.3
20260904043545 79 227 0.0 0.0 0.00 0.00 0.00 59 1014.3
20260904043056 78 227 0.0 0.0 0.00 0.00 0.00 59 1014.3
20260904042551 78 227 0.0 0.0 0.00 0.00 0.00 59 1014.4
20260904042044 78 227 0.0 0.0 0.00 0.00 0.00 59 1014.3
20260904041544 78 227 0.0 0.0 0.00 0.00 0.00 60 1014.2
20260904041046 78 227 0.0 0.0 0.00 0.00 0.00 60 1014.3
20260904040542 78 227 0.0 0.0 0.00 0.00 0.00 60 1014.3
20260904040100 78 227 0.0 0.0 0.00 0.00 0.00 60 1014.3
20260904035541 78 227 0.0 0.0 0.00 0.00 0.00 61 1014.3
20260904035041 78 227 0.0 0.0 0.00 0.00 0.00 61 1014.4
20260904034541 78 227 0.0 0.0 0.00 0.00 0.00 61 1014.4
20260904034041 78 227 0.0 0.0 0.00 0.00 0.00 62 1014.3
20260904033541 78 227 0.0 0.0 0.00 0.00 0.00 62 1014.4
20260904033043 78 227 0.0 0.0 0.00 0.00 0.00 62 1014.5
20260904032541 78 227 0.0 0.0 0.00 0.00 0.00 62 1014.4
20260904032041 78 227 0.0 0.0 0.00 0.00 0.00 62 1014.5
20260904031553 78 227 0.0 0.0 0.00 0.00 0.00 62 1014.5
20260904031040 78 227 0.0 0.0 0.00 0.00 0.00 62 1014.5
20260904030540 78 227 0.0 0.0 0.00 0.00 0.00 62 1014.6
20260904030040 78 227 0.0 0.0 0.00 0.00 0.00 62 1014.5
20260904025540 78 227 0.0 0.0 0.00 0.00 0.00 62 1014.6
20260904025040 78 227 0.0 0.0 0.00 0.00 0.00 62 1014.6
20260904024539 78 227 0.0 0.0 0.00 0.00 0.00 63 1014.6
20260904024039 79 227 0.0 0.0 0.00 0.00 0.00 63 1014.5
20260904023543 79 227 0.0 0.0 0.00 0.00 0.00 62 1014.5
20260904023039 79 227 0.0 0.0 0.00 0.00 0.00 62 1014.5
20260904022538 79 227 0.0 0.0 0.00 0.00 0.00 62 1014.5
20260904022039 79 227 0.0 0.0 0.00 0.00 0.00 62 1014.5
20260904021538 79 227 0.0 0.0 0.00 0.00 0.00 62 1014.5
20260904021038 79 227 0.0 0.0 0.00 0.00 0.00 62 1014.4
20260904020538 79 227 0.0 0.0 0.00 0.00 0.00 62 1014.4
20260904020042 80 227 0.0 0.0 0.00 0.00 0.00 62 1014.4
20260904015539 80 227 0.0 0.0 0.00 0.00 0.00 62 1014.4
20260904015038 80 227 0.0 0.0 0.00 0.00 0.00 62 1014.4
20260904014538 80 227 0.0 0.9 0.00 0.00 0.00 61 1014.4
20260904014038 80 227 0.0 0.9 0.00 0.00 0.00 61 1014.3
20260904013539 81 288 0.0 0.0 0.00 0.00 0.00 60 1014.2
20260904013044 81 288 0.0 0.0 0.00 0.00 0.00 60 1014.2
20260904012537 81 288 0.0 0.0 0.00 0.00 0.00 59 1014.1
20260904012037 81 288 0.0 0.0 0.00 0.00 0.00 59 1014.1
20260904011543 82 288 0.0 0.0 0.00 0.00 0.00 58 1014.1
20260904011036 82 288 0.0 0.0 0.00 0.00 0.00 57 1014.0
20260904010536 82 288 0.0 0.0 0.00 0.00 0.00 57 1013.8
20260904010036 83 288 0.0 0.0 0.00 0.00 0.00 56 1013.9
20260904005535 83 288 0.0 0.0 0.00 0.00 0.00 56 1013.7
20260904005035 84 288 0.0 0.0 0.00 0.00 0.00 56 1013.7
20260904004536 85 288 0.0 0.0 0.00 0.00 0.00 55 1013.7
20260904004036 85 290 0.0 0.0 0.00 0.00 0.00 52 1013.6
20260904003536 85 291 0.0 0.0 0.00 0.00 0.00 50 1013.6
20260904003035 86 290 0.0 0.0 0.00 0.00 0.00 51 1013.6
20260904002537 86 290 0.0 0.0 0.00 0.00 0.00 52 1013.5
20260904002035 87 290 0.0 0.0 0.00 0.00 0.00 51 1013.5
20260904001534 88 291 0.0 0.0 0.00 0.00 0.00 50 1013.5
20260904001034 88 291 0.0 0.0 0.00 0.00 0.00 51 1013.4
20260904000534 89 290 0.0 0.0 0.00 0.00 0.00 50 1013.3
20260904000034 89 291 0.0 0.0 0.00 0.00 0.00 48 1013.4
20260903235536 90 291 0.0 0.0 0.00 0.00 0.00 48 1013.3
20260903235034 90 291 0.0 0.0 0.00 0.00 0.00 46 1013.3
20260903234533 90 291 0.0 0.0 0.00 0.00 0.00 44 1013.2
20260903234034 90 291 0.0 0.0 0.00 0.00 0.00 43 1013.2
20260903233538 93 291 0.0 0.0 0.00 0.00 0.00 44 1013.2
20260903233033 94 291 0.0 0.0 0.00 0.00 0.00 42 1013.3
20260903232533 93 291 0.0 0.0 0.00 0.00 0.00 42 1013.2
20260903232033 92 291 0.0 0.0 0.00 0.00 0.00 41 1013.1
20260903231536 93 291 0.0 0.0 0.00 0.00 0.00 42 1013.1
20260903231032 95 290 0.0 0.0 0.00 0.00 0.00 40 1013.0
20260903230532 95 291 0.0 0.0 0.00 0.00 0.00 38 1013.0
20260903230044 95 291 0.0 0.0 0.00 0.00 0.00 35 1013.0
20260903225536 96 291 0.0 0.0 0.00 0.00 0.00 36 1013.1
20260903225031 96 290 0.0 0.0 0.00 0.00 0.00 32 1013.1
20260903224534 96 290 0.0 0.0 0.00 0.00 0.00 32 1013.1
20260903224032 95 290 0.0 0.0 0.00 0.00 0.00 33 1013.1
20260903223531 95 290 0.0 0.0 0.00 0.00 0.00 33 1013.1
20260903223031 95 290 0.0 0.0 0.00 0.00 0.00 34 1013.1
20260903222532 95 290 0.0 0.0 0.00 0.00 0.00 33 1013.1
20260903222031 96 267 0.0 0.0 0.00 0.00 0.00 33 1013.1
20260903221530 96 258 0.0 0.0 0.00 0.00 0.00 32 1013.0
20260903221030 96 258 0.0 0.0 0.00 0.00 0.00 32 1013.1
20260903220529 96 258 0.0 0.0 0.00 0.00 0.00 33 1013.0
20260903220029 96 257 0.0 0.0 0.00 0.00 0.00 33 1013.0
20260903215529 96 283 0.0 0.0 0.00 0.00 0.00 32 1013.1
20260903215028 96 295 0.0 0.0 0.00 0.00 0.00 32 1013.1
20260903214531 96 260 0.0 0.0 0.00 0.00 0.00 32 1013.3
20260903214028 96 256 0.0 0.0 0.00 0.00 0.00 32 1013.2
20260903213527 96 259 0.0 0.0 0.00 0.00 0.00 31 1013.2
20260903213039 96 211 0.0 0.0 0.00 0.00 0.00 31 1013.2
20260903212532 96 225 0.0 0.0 0.00 0.00 0.00 31 1013.3
20260903212024 97 255 0.0 0.0 0.00 0.00 0.00 33 1013.4
20260903211530 96 204 0.0 0.0 0.00 0.00 0.00 32 1013.5
20260903211024 96 220 0.0 0.0 0.00 0.00 0.00 32 1013.6
20260903210522 96 268 0.0 0.0 0.00 0.00 0.00 33 1013.7
20260903210021 96 298 0.0 0.0 0.00 0.00 0.00 33 1013.7
20260903205521 96 294 0.0 0.0 0.00 0.00 0.00 35 1013.8
20260903205021 96 297 0.0 0.0 0.00 0.00 0.00 33 1013.7
20260903204521 96 289 0.0 0.0 0.00 0.00 0.00 32 1013.8
20260903204021 96 314 0.0 0.0 0.00 0.00 0.00 32 1013.8
20260903203524 96 344 0.0 0.0 0.00 0.00 0.00 32 1013.8
20260903203020 97 292 0.0 0.0 0.00 0.00 0.00 32 1013.8
20260903202521 97 269 0.0 0.0 0.00 0.00 0.00 32 1013.9
20260903202019 97 273 0.0 0.0 0.00 0.00 0.00 32 1014.0
20260903201530 96 360 0.0 0.0 0.00 0.00 0.00 32 1014.0
20260903201017 96 286 0.0 0.0 0.00 0.00 0.00 31 1014.1
20260903200521 96 290 0.0 0.0 0.00 0.00 0.00 32 1014.1
20260903200016 98 294 0.0 0.9 0.00 0.00 0.00 30 1014.2
20260903195516 100 205 0.0 0.9 0.00 0.00 0.00 30 1014.2
20260903195019 99 181 0.0 0.0 0.00 0.00 0.00 33 1014.2
20260903194518 99 181 0.0 0.0 0.00 0.00 0.00 31 1014.3
20260903194013 99 181 0.0 0.9 0.00 0.00 0.00 31 1014.3
20260903193512 99 170 0.0 0.9 0.00 0.00 0.00 33 1014.3
20260903193012 97 147 0.0 0.0 0.00 0.00 0.00 35 1014.3
20260903192510 95 248 0.0 0.0 0.00 0.00 0.00 35 1014.5
20260903192009 95 255 0.0 0.0 0.00 0.00 0.00 34 1014.6
20260903191509 95 230 0.0 0.9 0.00 0.00 0.00 36 1014.6
20260903191009 95 217 0.0 0.0 0.00 0.00 0.00 34 1014.6
20260903190515 95 250 0.0 0.0 0.00 0.00 0.00 33 1014.7
20260903190008 95 242 0.0 0.0 0.00 0.00 0.00 34 1014.7
20260903185508 96 253 0.0 0.0 0.00 0.00 0.00 33 1014.8
20260903185008 95 267 0.0 0.9 0.00 0.00 0.00 35 1014.8
20260903184507 96 230 0.0 0.0 0.00 0.00 0.00 33 1014.8
20260903184007 95 178 0.0 0.0 0.00 0.00 0.00 35 1014.9
20260903183506 95 282 0.0 0.9 0.00 0.00 0.00 35 1014.9
20260903183007 95 200 0.0 0.9 0.00 0.00 0.00 35 1014.9
20260903182508 95 257 0.0 0.0 0.00 0.00 0.00 35 1014.9
20260903182005 96 176 0.0 0.0 0.00 0.00 0.00 34 1015.0
20260903181504 96 232 0.0 0.0 0.00 0.00 0.00 34 1015.0
20260903181004 96 236 0.0 0.0 0.00 0.00 0.00 34 1015.0
20260903180508 95 188 0.0 0.0 0.00 0.00 0.00 34 1015.1
20260903180012 95 211 0.0 0.0 0.00 0.00 0.00 34 1015.2
20260903175510 95 173 0.0 0.0 0.00 0.00 0.00 34 1015.2
20260903175004 95 225 0.0 0.0 0.00 0.00 0.00 34 1015.3
20260903174503 96 222 0.0 0.0 0.00 0.00 0.00 35 1015.4
20260903174006 95 223 0.0 0.0 0.00 0.00 0.00 35 1015.4
20260903173502 95 217 0.0 0.0 0.00 0.00 0.00 35 1015.4
20260903173002 95 290 0.0 0.0 0.00 0.00 0.00 36 1015.5
20260903172501 94 313 0.0 0.0 0.00 0.00 0.00 36 1015.5
20260903172002 94 294 0.0 0.0 0.00 0.00 0.00 37 1015.6
20260903171504 94 319 0.0 0.0 0.00 0.00 0.00 37 1015.6
20260903171001 95 286 0.0 0.0 0.00 0.00 0.00 38 1015.7
20260903170600 95 263 0.0 0.0 0.00 0.00 0.00 37 1015.7
20260903170105 95 198 0.0 0.9 0.00 0.00 0.00 39 1015.7
20260903165559 94 173 0.0 0.9 0.00 0.00 0.00 38 1015.7
20260903165101 94 240 0.0 0.0 0.00 0.00 0.00 39 1015.8
20260903164602 93 276 0.0 0.0 0.00 0.00 0.00 39 1015.8
20260903164059 93 313 0.0 0.0 0.00 0.00 0.00 38 1015.8
20260903163558 93 275 0.0 0.0 0.00 0.00 0.00 40 1015.9
20260903163058 94 281 0.0 0.0 0.00 0.00 0.00 38 1016.0
20260903162559 93 298 0.0 0.0 0.00 0.00 0.00 38 1016.0
20260903162056 94 300 0.0 0.0 0.00 0.00 0.00 39 1016.0
20260903161556 94 277 0.0 0.9 0.00 0.00 0.00 39 1016.1
20260903161054 94 265 0.0 0.9 0.00 0.00 0.00 39 1016.1
20260903160554 92 279 0.0 0.0 0.00 0.00 0.00 41 1016.1
20260903160055 92 278 0.0 0.9 0.00 0.00 0.00 40 1016.1
20260903155553 92 229 0.0 0.9 0.00 0.00 0.00 41 1016.1
20260903155052 92 300 0.0 0.0 0.00 0.00 0.00 41 1016.1
20260903154558 92 283 0.0 0.0 0.00 0.00 0.00 43 1016.2
20260903154051 91 267 0.0 0.0 0.00 0.00 0.00 42 1016.3
20260903153550 91 280 0.0 0.0 0.00 0.00 0.00 41 1016.2
20260903153106 91 286 0.0 0.0 0.00 0.00 0.00 43 1016.2
20260903152549 91 290 0.0 0.0 0.00 0.00 0.00 44 1016.2
20260903152051 91 288 0.0 0.0 0.00 0.00 0.00 43 1016.2
20260903151548 90 282 0.0 0.0 0.00 0.00 0.00 43 1016.2
20260903151048 90 272 0.0 0.0 0.00 0.00 0.00 44 1016.2
20260903150547 90 242 0.0 0.0 0.00 0.00 0.00 43 1016.2
20260903150101 90 268 0.0 0.0 0.00 0.00 0.00 43 1016.3
20260903145548 90 269 0.0 0.0 0.00 0.00 0.00 43 1016.2
20260903145046 90 269 0.0 0.0 0.00 0.00 0.00 45 1016.2
20260903144546 90 200 0.0 0.0 0.00 0.00 0.00 46 1016.2
20260903144049 90 233 0.0 0.0 0.00 0.00 0.00 46 1016.1
20260903143546 90 194 0.0 0.0 0.00 0.00 0.00 46 1016.2
20260903143055 89 172 0.0 0.0 0.00 0.00 0.00 48 1016.2
20260903142543 89 172 0.0 0.0 0.00 0.00 0.00 47 1016.2
20260903142041 89 171 0.0 0.0 0.00 0.00 0.00 48 1016.2
20260903141544 88 171 0.0 0.0 0.00 0.00 0.00 50 1016.2
20260903141038 87 171 0.0 0.0 0.00 0.00 0.00 50 1016.3
20260903140537 87 171 0.0 0.0 0.00 0.00 0.00 51 1016.3
20260903140037 86 171 0.0 0.0 0.00 0.00 0.00 54 1016.3